Location: Staunton
(38.1490°N, 79.0720°W)
Time: 13:52:42
(UTC-04:00)

ISS - Pass Details

Date: 14 September 2018
Orbit: 403 x 408 km, 51.6° (Epoch: 26 September)

Event Time Altitude Azimuth Distance (km) Brightness Sun altitude
Exits shadow 04:27:13 10° 15° (NNE) 1,448 -0.5 -28.7°
Drops below altitude 10° 04:27:37 10° 23° (NNE) 1,462 -0.4 -28.7°
Sets 04:31:28 0° 69° (ENE) 2,318 1.2 -28.0°
